Toluca Jose Maria, Mexico

8:14 PM CST on March 23, 2017 (GMT -0600)
Lic Adolfo Lopez Mateos International

Weather History for MMTO - January, 2013

Change the Weather History Date:

Wednesday, January 16, 2013

  Actual Average Record
Temperature  
Mean Temperature 50 °F -  
Max Temperature 68 °F 64 °F 73 °F (2002)
Min Temperature 33 °F 30 °F 26 °F (1998)
Degree Days  
Heating Degree Days 14    
Moisture  
Dew Point 38 °F    
Average Humidity 66    
Maximum Humidity 93    
Minimum Humidity 30    
Precipitation  
Precipitation 0.35 in - - ()
Sea Level Pressure  
Sea Level Pressure 30.17 in    
Wind  
Wind Speed 3 mph ()    
Max Wind Speed 15 mph    
Max Gust Speed -    
Visibility 5.0 miles    
Events Fog , Rain    
Averages and records for this station are not official NWS values.
T = Trace of Precipitation, MM = Missing Value Source: Averaged Metar Reports

Daily Weather History Graph

Daily Weather History Graph

Search for Another Location

Airport or City:

Trip Planner

Search our weather history database for the weather conditions in past years. The results will help you decide how hot, cold, wet, or windy it might be!

Date:

Astronomy

Jan. 16, 2013 Rise Set
Actual Time 7:15 AM CST 6:21 PM CST
Civil Twilight 6:51 AM CST 6:44 PM CST
Nautical Twilight 6:24 AM CST 7:11 PM CST
Astronomical Twilight 5:58 AM CST 7:38 PM CST
Moon 10:42 AM CST (1/16) 11:19 PM CST (1/16)
Length of Visible Light 11h 53m
Length of Day
11h 06m
Waxing Crescent, 28% of the Moon is Illuminated
Jan 16
Waxing Crescent
Jan 18
First Quarter
Jan 26
Full
Feb 3
Last Quarter
Feb 10
New

Hourly Weather History & Observations

Time (CST) Temp. Windchill Dew Point Humidity Pressure Visibility Wind Dir Wind Speed Gust Speed Precip Events Conditions
12:45 AM 42.8 °F - 37.4 °F 81% 30.30 in 7.0 mi Calm Calm - N/A   Clear
1:45 AM 41.0 °F - 35.6 °F 81% 30.30 in 7.0 mi Calm Calm - N/A   Clear
2:45 AM 39.2 °F - 35.6 °F 87% 29.66 in 7.0 mi Calm Calm - N/A   Clear
3:45 AM 37.4 °F - 33.8 °F 87% 30.29 in 6.0 mi Calm Calm - N/A   Clear
4:42 AM 37.4 °F - 35.6 °F 93% 30.30 in 3.0 mi Calm Calm - N/A   Clear
5:45 AM 33.8 °F 30.8 °F 30.2 °F 87% 29.92 in 0.2 mi NE 3.5 mph - N/A Fog Fog
6:28 AM 35.6 °F 31.7 °F 33.8 °F 93% 30.32 in 1.0 mi WNW 4.6 mph - N/A   Partly Cloudy
6:45 AM 35.6 °F 32.8 °F 33.8 °F 93% 30.32 in 1.0 mi West 3.5 mph - N/A   Partly Cloudy
7:30 AM 35.6 °F - 32.0 °F 87% 30.34 in 1.0 mi Calm Calm - N/A   Partly Cloudy
7:45 AM 33.8 °F - 32.0 °F 93% 30.35 in 2.0 mi Calm Calm - N/A   Partly Cloudy
8:45 AM 41.0 °F - 39.2 °F 93% 29.99 in 2.0 mi Calm Calm - N/A   Partly Cloudy
9:45 AM 51.8 °F - 41.0 °F 67% 30.36 in 2.0 mi Calm Calm - N/A   Partly Cloudy
10:45 AM 59.0 °F - 41.0 °F 51% 30.34 in 3.0 mi Calm Calm - N/A   Partly Cloudy
11:45 AM 62.6 °F - 39.2 °F 42% 29.81 in 5.0 mi SE 10.4 mph - N/A   Mostly Cloudy
12:45 PM 66.2 °F - 37.4 °F 35% 30.26 in 6.0 mi South 10.4 mph - N/A   Mostly Cloudy
1:45 PM 68.0 °F - 35.6 °F 30% 30.23 in 7.0 mi South 10.4 mph - N/A   Mostly Cloudy
2:45 PM 68.0 °F - 37.4 °F 33% 29.73 in 7.0 mi South 11.5 mph - N/A   Mostly Cloudy
3:45 PM 68.0 °F - 39.2 °F 35% 30.21 in 7.0 mi SSE 15.0 mph - N/A   Mostly Cloudy
4:45 PM 64.4 °F - 41.0 °F 42% 30.23 in 7.0 mi South 15.0 mph - N/A   Scattered Clouds
5:45 PM 60.8 °F - 41.0 °F 48% 29.88 in 7.0 mi South 13.8 mph - N/A   Scattered Clouds
6:45 PM 59.0 °F - 42.8 °F 55% 30.28 in 7.0 mi South 10.4 mph - N/A   Overcast
7:45 PM 57.2 °F - 41.0 °F 55% 30.32 in 7.0 mi SSE 9.2 mph - N/A   Overcast
8:25 PM 55.4 °F - 42.8 °F 63% 30.33 in 6.0 mi SSW 5.8 mph - N/A Rain Light Rain
8:45 PM 55.4 °F - 42.8 °F 63% 29.94 in 6.0 mi SSW 6.9 mph - N/A   Overcast
9:45 PM 55.4 °F - 41.0 °F 58% 30.35 in 6.0 mi West 6.9 mph - N/A   Mostly Cloudy
10:45 PM 51.8 °F - 41.0 °F 67% 30.37 in 7.0 mi ENE 6.9 mph - N/A   Mostly Cloudy
11:45 PM 50.0 °F - 37.4 °F 62% 29.85 in 7.0 mi NNE 6.9 mph - N/A   Mostly Cloudy